FW7383 Weather Reports


time (UTC)temp
C
wind
direction
speed
KPH
gust
KPH
rain 1hr
cm
rain 24hr
cm
rain mn
cm
humidity
%
barometer
mb
20260507162042 13 309 0.0 3.2 0.00 0.00 0.00 63 1016.7
20260507161606 13 295 0.0 4.8 0.00 0.00 0.00 63 1016.7
20260507161016 14 282 0.0 4.8 0.00 0.00 0.00 65 1016.6
20260507160543 14 316 0.0 4.8 0.00 0.00 0.00 64 1016.6
20260507160041 14 319 1.6 4.8 0.00 0.00 0.00 63 1016.6
20260507155531 14 30 0.0 4.8 0.00 0.00 0.00 61 1016.7
20260507155056 14 297 0.0 4.8 0.00 0.00 0.00 61 1016.7
20260507154518 14 296 0.0 3.2 0.00 0.00 0.00 61 1016.7
20260507154040 14 22 0.0 4.8 0.00 0.00 0.00 61 1016.7
20260507153603 15 11 0.0 4.8 0.00 0.00 0.00 63 1016.7
20260507153106 15 310 1.6 4.8 0.00 0.00 0.00 61 1016.6
20260507152523 15 295 0.0 4.8 0.00 0.00 0.00 60 1016.6
20260507152047 15 300 0.0 4.8 0.00 0.00 0.00 61 1016.6
20260507151506 15 252 1.6 6.4 0.00 0.00 0.00 59 1016.7
20260507151010 15 25 1.6 6.4 0.00 0.00 0.00 60 1016.6
20260507150518 15 266 0.0 3.2 0.00 0.00 0.00 57 1016.6
20260507150025 15 291 0.0 3.2 0.00 0.00 0.00 57 1016.6
20260507145544 15 278 0.0 1.6 0.00 0.00 0.00 56 1016.5
20260507145005 15 278 0.0 1.6 0.00 0.00 0.00 55 1016.6
20260507144532 15 250 0.0 1.6 0.00 0.00 0.00 56 1016.6
20260507144052 15 250 0.0 1.6 0.00 0.00 0.00 55 1016.6
20260507143509 14 250 0.0 1.6 0.00 0.00 0.00 58 1016.6
20260507143008 14 298 0.0 1.6 0.00 0.00 0.00 59 1016.6
20260507142526 15 298 0.0 1.6 0.00 0.00 0.00 60 1016.6
20260507142051 15 298 0.0 1.6 0.00 0.00 0.00 56 1016.6
20260507141518 15 316 0.0 0.0 0.00 0.00 0.00 59 1016.6
20260507141034 15 316 0.0 0.0 0.00 0.00 0.00 59 1016.7
20260507140548 15 316 0.0 0.0 0.00 0.00 0.00 61 1016.7
20260507140106 15 316 0.0 1.6 0.00 0.00 0.00 58 1016.7
20260507135600 15 316 0.0 1.6 0.00 0.00 0.00 57 1016.7
20260507135021 15 263 0.0 1.6 0.00 0.00 0.00 56 1016.8
20260507134549 15 304 0.0 0.0 0.00 0.00 0.00 53 1016.8
20260507134009 15 304 0.0 0.0 0.00 0.00 0.00 58 1016.8
20260507133528 15 304 0.0 0.0 0.00 0.00 0.00 59 1016.8
20260507133036 15 304 0.0 0.0 0.00 0.00 0.00 55 1016.8
20260507132555 15 304 0.0 0.0 0.00 0.00 0.00 55 1016.8
20260507132013 15 304 0.0 0.0 0.00 0.00 0.00 56 1016.7
20260507131540 15 304 0.0 0.0 0.00 0.00 0.00 58 1016.8
20260507131105 15 304 0.0 0.0 0.00 0.00 0.00 60 1016.8
20260507130506 15 304 0.0 0.0 0.00 0.00 0.00 55 1016.8
20260507130034 15 304 0.0 3.2 0.00 0.00 0.00 58 1016.7
20260507125554 15 304 0.0 3.2 0.00 0.00 0.00 57 1016.8
20260507125008 15 119 0.0 1.6 0.00 0.00 0.00 55 1016.8
20260507124545 15 119 0.0 1.6 0.00 0.00 0.00 57 1016.8
20260507124053 15 204 0.0 0.0 0.00 0.00 0.00 58 1016.8
20260507123558 15 204 0.0 4.8 0.00 0.00 0.00 59 1016.7
20260507123015 15 204 1.6 4.8 0.00 0.00 0.00 54 1016.7
20260507122518 15 236 0.0 4.8 0.00 0.00 0.00 57 1016.7
20260507122039 15 330 0.0 4.8 0.00 0.00 0.00 57 1016.7
20260507121604 15 228 0.0 1.6 0.00 0.00 0.00 55 1016.7
20260507121025 15 246 0.0 3.2 0.00 0.00 0.00 58 1016.7
20260507120548 15 246 0.0 3.2 0.00 0.00 0.00 55 1016.7
20260507120057 15 265 0.0 4.8 0.00 0.00 0.00 56 1016.7
20260507115518 15 286 0.0 4.8 0.00 0.00 0.00 55 1016.7
20260507115028 15 268 0.0 3.2 0.00 0.00 0.00 57 1016.7
20260507114608 15 250 0.0 3.2 0.00 0.00 0.00 57 1016.7
20260507114012 15 261 0.0 3.2 0.00 0.00 0.00 60 1016.7
20260507113532 15 261 0.0 3.2 0.00 0.00 0.00 59 1016.7
20260507113036 15 260 0.0 1.6 0.00 0.00 0.00 62 1016.6
20260507112601 15 261 0.0 1.6 0.00 0.00 0.00 61 1016.7
20260507112019 15 247 0.0 1.6 0.00 0.00 0.00 58 1016.7
20260507111543 14 287 0.0 1.6 0.00 0.00 0.00 61 1016.7
20260507111000 15 298 0.0 3.2 0.00 0.00 0.00 57 1016.8
20260507110506 15 304 0.0 3.2 0.00 0.00 0.00 58 1016.8
20260507110039 15 268 0.0 6.4 0.00 0.00 0.00 60 1016.8
20260507105533 15 272 1.6 6.4 0.00 0.00 0.00 59 1016.8
20260507105101 15 277 0.0 0.0 0.00 0.00 0.00 64 1016.9
20260507104520 14 277 0.0 0.0 0.00 0.00 0.00 68 1016.8
20260507104047 13 277 0.0 0.0 0.00 0.00 0.00 62 1016.9
20260507103546 13 277 0.0 1.6 0.00 0.00 0.00 67 1016.9
20260507103050 13 277 0.0 3.2 0.00 0.00 0.00 64 1016.9
20260507102506 13 277 0.0 6.4 0.00 0.00 0.00 64 1016.9
20260507102031 13 283 0.0 6.4 0.00 0.00 0.00 65 1017.0
20260507101556 13 266 0.0 4.8 0.00 0.00 0.00 64 1017.0
20260507101013 13 290 1.6 4.8 0.00 0.00 0.00 66 1016.9
20260507100514 13 316 0.0 4.8 0.00 0.00 0.00 66 1016.9
20260507100044 13 183 0.0 4.8 0.00 0.00 0.00 72 1016.9
20260507095546 13 282 0.0 4.8 0.00 0.00 0.00 68 1016.9
20260507095052 13 192 0.0 0.0 0.00 0.00 0.00 71 1016.9
20260507094513 12 192 0.0 1.6 0.00 0.00 0.00 72 1016.9
20260507094044 12 192 0.0 3.2 0.00 0.00 0.00 72 1016.8
20260507093608 12 321 0.0 3.2 0.00 0.00 0.00 73 1016.9
20260507093033 12 259 0.0 0.0 0.00 0.00 0.00 75 1016.9
20260507092546 12 259 0.0 4.8 0.00 0.00 0.00 76 1016.8
20260507092002 12 259 0.0 4.8 0.00 0.00 0.00 73 1016.8
20260507091535 12 227 0.0 4.8 0.00 0.00 0.00 73 1016.8
20260507091046 12 291 0.0 1.6 0.00 0.00 0.00 74 1016.8
20260507090552 12 259 0.0 1.6 0.00 0.00 0.00 77 1016.8
20260507090103 12 259 0.0 4.8 0.00 0.00 0.00 76 1016.7
20260507085514 11 275 0.0 4.8 0.00 0.00 0.00 77 1016.8
20260507085037 11 278 0.0 4.8 0.00 0.00 0.00 76 1016.7
20260507084559 11 278 0.0 4.8 0.00 0.00 0.00 76 1016.7
20260507084016 11 333 0.0 4.8 0.00 0.00 0.00 77 1016.7
20260507083540 11 283 0.0 4.8 0.00 0.00 0.00 78 1016.7
20260507083038 11 273 0.0 3.2 0.00 0.00 0.00 78 1016.7
20260507082603 11 219 0.0 1.6 0.00 0.00 0.00 80 1016.6
20260507082020 11 298 0.0 3.2 0.00 0.00 0.00 81 1016.6
20260507081545 11 294 0.0 1.6 0.00 0.00 0.00 81 1016.6
20260507081108 11 293 0.0 1.6 0.00 0.00 0.00 80 1016.6
20260507080501 11 239 0.0 3.2 0.00 0.00 0.00 82 1016.6
20260507080020 11 281 0.0 3.2 0.00 0.00 0.00 82 1016.5
20260507075525 11 264 0.0 3.2 0.00 0.03 0.00 82 1016.5
20260507075056 10 245 0.0 4.8 0.00 0.03 0.00 82 1016.5
20260507074514 10 300 0.0 3.2 0.00 0.03 0.00 83 1016.4
20260507074040 10 300 0.0 4.8 0.00 0.03 0.00 83 1016.3
20260507073502 10 263 0.0 4.8 0.00 0.03 0.00 82 1016.4
20260507073030 10 278 0.0 3.2 0.00 0.03 0.00 83 1016.3
20260507072533 10 278 0.0 6.4 0.00 0.03 0.00 83 1016.3
20260507072034 10 235 0.0 6.4 0.00 0.03 0.00 84 1016.2
20260507071600 10 276 0.0 1.6 0.00 0.03 0.00 83 1016.2
20260507071017 10 216 0.0 1.6 0.00 0.03 0.00 84 1016.2
20260507070622 10 314 0.0 1.6 0.00 0.03 0.00 84 1016.1
20260507070025 10 304 0.0 1.6 0.00 0.03 0.00 84 1016.1
20260507065543 10 295 0.0 3.2 0.00 0.03 0.00 84 1016.2
20260507065107 10 294 0.0 3.2 0.00 0.03 0.00 85 1016.1
20260507064627 9 297 0.0 3.2 0.00 0.03 0.00 85 1016.1
20260507064050 9 187 0.0 1.6 0.00 0.03 0.00 85 1016.0
20260507063508 9 187 0.0 1.6 0.00 0.03 0.00 86 1016.0
20260507063048 9 187 0.0 1.6 0.00 0.03 0.00 85 1016.0
20260507062559 9 187 0.0 1.6 0.00 0.03 0.00 85 1016.0
20260507062020 8 160 0.0 1.6 0.00 0.03 0.00 86 1015.9
20260507061549 8 160 0.0 1.6 0.00 0.03 0.00 86 1015.9
20260507061005 8 160 0.0 0.0 0.00 0.03 0.00 87 1015.9
20260507060509 8 160 0.0 0.0 0.00 0.03 0.00 87 1015.8
20260507060039 8 160 0.0 0.0 0.00 0.03 0.00 88 1015.8
20260507055553 8 160 0.0 0.0 0.00 0.03 0.00 88 1015.7
20260507055016 8 160 0.0 0.0 0.00 0.03 0.00 88 1015.7
20260507054543 8 160 0.0 0.0 0.00 0.03 0.00 88 1015.6
20260507054045 8 160 0.0 0.0 0.00 0.03 0.00 88 1015.6
20260507053507 8 160 0.0 0.0 0.00 0.03 0.00 88 1015.5
20260507053033 -17 0.0 0.0 0.00 0.03 0.00 1015.5
20260507052552 -17 0.0 0.0 0.00 0.03 0.00 1015.5
20260507052009 -17 0.0 0.0 0.00 0.03 0.00 1015.4
20260507051512 -17 0.0 0.0 0.00 0.03 0.00 1015.4
20260507051036 -17 0.0 0.0 0.00 0.03 0.00 1015.4
20260507050621 -17 0.0 0.0 0.00 0.03 0.00 1015.4
20260507050019 -17 0.0 0.0 0.00 0.03 0.00 1015.2
20260507045541 -17 0.0 0.0 0.00 0.03 0.00 1015.2
20260507045001 -17 0.0 0.0 0.00 0.03 0.00 1015.2
20260507044629 -17 0.0 0.0 0.00 0.03 0.00 1015.2
20260507044056 -17 0.0 0.0 0.00 0.03 0.00 1015.1
20260507043518 -17 0.0 0.0 0.00 0.03 0.00 1015.1
20260507043047 -17 0.0 0.0 0.00 0.03 0.00 1015.1
20260507042610 7 155 0.0 0.0 0.00 0.03 0.00 87 1015.1
20260507042043 7 155 0.0 0.0 0.00 0.03 0.00 87 1015.0
20260507041607 7 160 0.0 0.0 0.00 0.03 0.00 88 1015.0
20260507041026 8 160 0.0 0.0 0.00 0.03 0.00 88 1015.0
20260507040549 8 160 0.0 0.0 0.00 0.03 0.00 88 1014.9
20260507040105 8 160 0.0 0.0 0.00 0.03 0.00 88 1015.0
20260507035600 8 160 0.0 1.6 0.00 0.03 0.00 88 1014.9
20260507035023 8 160 0.0 1.6 0.00 0.03 0.00 88 1014.9
20260507034654 8 131 0.0 1.6 0.00 0.03 0.00 88 1014.9
20260507034017 8 131 0.0 1.6 0.00 0.03 0.00 87 1014.8
20260507033557 8 146 0.0 1.6 0.00 0.03 0.00 87 1014.7
20260507033105 8 146 0.0 0.0 0.00 0.03 0.00 87 1014.7
20260507032632 8 146 0.0 0.0 0.00 0.03 0.00 86 1014.7
20260507032031 8 146 0.0 1.6 0.00 0.03 0.00 87 1014.7
20260507031604 8 146 0.0 1.6 0.00 0.03 0.00 87 1014.7
20260507031104 8 146 0.0 0.0 0.00 0.03 0.00 86 1014.6
20260507030504 8 285 0.0 0.0 0.00 0.03 0.00 84 1014.6
20260507030031 8 285 0.0 0.0 0.00 0.03 0.00 83 1014.6
20260507025536 8 285 0.0 0.0 0.00 0.05 0.00 83 1014.6
20260507025106 8 284 0.0 0.0 0.00 0.05 0.00 83 1014.6
20260507024504 8 284 0.0 0.0 0.00 0.05 0.00 84 1014.6
20260507024027 8 284 0.0 0.0 0.00 0.05 0.00 85 1014.5
20260507023555 8 284 0.0 1.6 0.00 0.05 0.00 86 1014.5
20260507023021 8 285 0.0 1.6 0.00 0.05 0.00 86 1014.5
20260507022553 8 285 0.0 1.6 0.00 0.05 0.00 87 1014.5
20260507022011 8 285 0.0 1.6 0.00 0.05 0.00 87 1014.5
20260507021603 8 285 0.0 0.0 0.00 0.05 0.00 88 1014.5
20260507021027 8 285 0.0 0.0 0.00 0.05 0.00 87 1014.4
20260507020505 8 285 0.0 0.0 0.00 0.05 0.00 85 1014.3
20260507020038 8 285 0.0 0.0 0.00 0.05 0.00 85 1014.3
20260507015548 8 285 0.0 0.0 0.00 0.05 0.00 85 1014.2
20260507015008 8 285 0.0 0.0 0.00 0.05 0.00 87 1014.2
20260507014538 8 285 0.0 0.0 0.00 0.05 0.00 87 1014.2
20260507014039 8 285 0.0 0.0 0.00 0.05 0.00 86 1014.1
20260507013606 8 285 0.0 0.0 0.00 0.05 0.00 85 1014.1
20260507013044 8 285 0.0 0.0 0.00 0.05 0.00 83 1014.1
20260507012657 8 285 0.0 0.0 0.00 0.05 0.00 84 1014.1
20260507012003 8 285 0.0 0.0 0.00 0.05 0.00 85 1014.1
20260507011529 8 285 0.0 0.0 0.00 0.05 0.00 86 1014.1
20260507011048 8 285 0.0 0.0 0.00 0.05 0.00 82 1014.2
20260507010606 8 285 0.0 0.0 0.00 0.05 0.00 82 1014.2
20260507010003 8 285 0.0 0.0 0.00 0.05 0.00 82 1014.1
20260507005506 8 285 0.0 0.0 0.00 0.05 0.00 83 1014.1
20260507005032 8 285 0.0 0.0 0.00 0.05 0.00 83 1014.1
20260507004554 8 285 0.0 0.0 0.00 0.05 0.00 81 1014.1
20260507004015 8 285 0.0 0.0 0.00 0.05 0.00 81 1014.1
20260507003540 8 285 0.0 0.0 0.00 0.05 0.00 80 1014.1
20260507003106 8 285 0.0 0.0 0.00 0.05 0.00 80 1014.1
20260507002526 8 285 0.0 0.0 0.00 0.05 0.00 80 1014.0
20260507002049 9 285 0.0 0.0 0.00 0.05 0.00 80 1014.0
20260507001556 9 285 0.0 0.0 0.00 0.05 0.00 80 1014.0
20260507001056 9 285 0.0 0.0 0.00 0.05 0.00 80 1013.9
20260507000622 9 285 0.0 0.0 0.00 0.05 0.00 80 1014.0
20260507000002 9 285 0.0 0.0 0.00 0.05 0.00 80 1013.9
20260506235527 9 285 0.0 0.0 0.00 0.10 0.00 80 1013.8
20260506235032 9 285 0.0 0.0 0.00 0.10 0.00 80 1013.9
20260506234555 9 285 0.0 1.6 0.00 0.10 0.00 80 1013.8
20260506234020 9 285 0.0 1.6 0.00 0.10 0.00 79 1013.8
20260506233104 9 285 0.0 0.0 0.00 0.10 0.00 79 1013.8
20260506232512 9 285 0.0 0.0 0.00 0.10 0.00 79 1013.7
20260506232038 9 285 0.0 0.0 0.00 0.10 0.00 79 1013.6
20260506231619 9 285 0.0 0.0 0.00 0.10 0.00 80 1013.6
20260506231027 9 285 0.0 0.0 0.00 0.10 0.00 80 1013.6
20260506230551 9 285 0.0 0.0 0.00 0.10 0.00 79 1013.6
20260506230103 9 285 0.0 0.0 0.00 0.10 0.00 79 1013.5
20260506225603 9 285 0.0 0.0 0.00 0.18 0.00 79 1013.5
20260506225023 9 285 0.0 0.0 0.00 0.18 0.00 79 1013.5
20260506224545 9 285 0.0 0.0 0.00 0.18 0.00 78 1013.5
20260506224003 9 285 0.0 0.0 0.00 0.18 0.00 78 1013.4
20260506223531 9 285 0.0 0.0 0.00 0.18 0.00 78 1013.4
20260506223054 9 285 0.0 0.0 0.00 0.18 0.00 78 1013.4
20260506222517 8 285 0.0 0.0 0.00 0.18 0.00 79 1013.4
20260506222042 8 285 0.0 0.0 0.00 0.18 0.00 79 1013.4
20260506221502 8 285 0.0 0.0 0.00 0.18 0.00 80 1013.3
20260506221026 8 285 0.0 0.0 0.00 0.18 0.00 80 1013.3
20260506220550 8 285 0.0 0.0 0.00 0.18 0.00 80 1013.4
20260506220058 8 285 0.0 0.0 0.00 0.18 0.00 80 1013.3
20260506215514 8 285 0.0 0.0 0.00 0.25 0.18 80 1013.4
20260506215036 8 285 0.0 0.0 0.00 0.25 0.18 81 1013.4
20260506214543 8 285 0.0 0.0 0.00 0.25 0.18 81 1013.4
20260506214017 8 285 0.0 0.0 0.00 0.25 0.18 82 1013.4
20260506213516 8 285 0.0 0.0 0.00 0.25 0.18 82 1013.3
20260506213022 8 285 0.0 0.0 0.00 0.25 0.18 82 1013.2
20260506212549 8 285 0.0 0.0 0.00 0.25 0.18 82 1013.2
20260506212012 8 285 0.0 0.0 0.00 0.25 0.18 82 1013.2
20260506211523 8 285 0.0 0.0 0.00 0.25 0.18 82 1013.1
20260506211022 8 285 0.0 0.0 0.00 0.25 0.18 81 1013.1
20260506210548 8 285 0.0 0.0 0.00 0.25 0.18 81 1013.0
20260506210055 8 285 0.0 0.0 0.00 0.25 0.18 81 1013.1
20260506205551 8 285 0.0 0.0 0.00 0.33 0.18 81 1013.1
20260506205019 8 285 0.0 0.0 0.00 0.33 0.18 81 1013.0
20260506204537 8 285 0.0 0.0 0.00 0.33 0.18 81 1013.0
20260506204041 8 285 0.0 0.0 0.00 0.33 0.18 80 1013.0
20260506203607 8 285 0.0 0.0 0.00 0.33 0.18 80 1012.9
20260506203026 8 285 0.0 0.0 0.00 0.33 0.18 80 1012.9
20260506202552 8 285 0.0 0.0 0.00 0.33 0.18 79 1012.8
20260506202010 8 285 0.0 0.0 0.00 0.33 0.18 79 1012.8
20260506201536 9 285 0.0 0.0 0.00 0.33 0.18 78 1012.8
20260506201100 9 285 0.0 1.6 0.00 0.33 0.18 78 1012.7
20260506200502 9 285 0.0 3.2 0.00 0.33 0.18 77 1012.7
20260506200039 9 304 0.0 4.8 0.00 0.33 0.18 77 1012.7
20260506195554 10 264 0.0 6.4 0.00 0.38 0.18 77 1012.7
20260506195017 10 312 1.6 6.4 0.00 0.38 0.18 76 1012.6
20260506194546 10 290 0.0 6.4 0.00 0.38 0.18 75 1012.6
20260506194006 10 319 1.6 6.4 0.00 0.38 0.18 75 1012.5
20260506193529 10 332 0.0 6.4 0.00 0.38 0.18 74 1012.5
20260506193033 10 322 1.6 6.4 0.00 0.38 0.18 74 1012.4
20260506192556 10 355 1.6 6.4 0.00 0.38 0.18 73 1012.4
20260506192020 11 287 1.6 4.8 0.00 0.38 0.18 73 1012.3
20260506191546 11 284 0.0 6.4 0.00 0.38 0.18 72 1012.1
20260506191009 11 324 1.6 4.8 0.00 0.38 0.18 71 1012.1
20260506190513 11 300 0.0 4.8 0.00 0.38 0.18 70 1012.0
20260506190036 11 280 0.0 4.8 0.00 0.38 0.18 70 1011.9
20260506185555 11 300 1.6 4.8 0.00 0.38 0.18 69 1011.9
20260506185012 11 307 1.6 6.4 0.00 0.38 0.18 69 1011.8
20260506184537 11 340 1.6 6.4 0.00 0.38 0.18 69 1011.7
20260506184102 11 306 0.0 3.2 0.00 0.38 0.18 71 1011.6
20260506183522 11 13 0.0 3.2 0.00 0.38 0.18 70 1011.5
20260506183049 11 271 0.0 1.6 0.00 0.38 0.18 71 1011.5
20260506182510 11 285 0.0 4.8 0.00 0.38 0.18 72 1011.4
20260506182035 11 286 1.6 4.8 0.00 0.38 0.18 71 1011.4
20260506181538 11 344 0.0 4.8 0.00 0.38 0.18 70 1011.3
20260506181103 11 306 0.0 8.0 0.00 0.38 0.18 71 1011.2
20260506180507 12 333 1.6 6.4 0.00 0.38 0.18 72 1011.1
20260506180030 12 295 0.0 11.3 0.00 0.38 0.18 72 1011.1
20260506175559 12 288 0.0 11.3 0.00 0.38 0.18 71 1011.0
20260506175014 12 223 0.0 3.2 0.00 0.38 0.18 72 1010.9
20260506174541 12 215 0.0 3.2 0.00 0.38 0.18 71 1010.9
20260506174003 12 206 0.0 1.6 0.00 0.38 0.18 72 1010.7
20260506173527 12 288 0.0 4.8 0.00 0.38 0.18 72 1010.7
20260506173042 12 224 0.0 4.8 0.00 0.38 0.18 72 1010.6
20260506172600 12 251 0.0 3.2 0.00 0.38 0.18 72 1010.6
20260506172021 12 212 0.0 3.2 0.00 0.38 0.18 74 1010.6
20260506171553 12 212 0.0 3.2 0.00 0.38 0.18 73 1010.6
20260506171009 12 264 0.0 4.8 0.00 0.38 0.18 72 1010.5
20260506170536 12 218 0.0 4.8 0.00 0.38 0.18 73 1010.5
20260506170039 12 218 0.0 4.8 0.00 0.38 0.18 74 1010.5
20260506165600 12 267 0.0 4.8 0.00 0.38 0.18 74 1010.4
20260506165127 12 196 0.0 4.8 0.00 0.38 0.18 74 1010.4
20260506164614 12 219 0.0 1.6 0.00 0.38 0.18 74 1010.3
20260506164101 12 292 0.0 3.2 0.00 0.38 0.18 75 1010.3
20260506163524 12 298 0.0 3.2 0.00 0.38 0.18 75 1010.3
20260506163058 12 209 0.0 3.2 0.00 0.38 0.18 76 1010.3
20260506162555 12 342 0.0 3.2 0.00 0.38 0.18 76 1010.3